Dewpoint
54 54 53 52 52 51 51 50 50 50 52 52 53 53 54 54 52 29 22 38 46 53 52 41 33 31 34 36 35 35 25 20 20 19 23 26 25 24 25 23 23 22 20 21 23
55 54 53 52 52 51 51 50 50 50 51 52 52 53 54 53 39 25 41 47 49 52 41 34 29 31 31 31 32 28 25 21 17 17 20 25 23 23 23 23 23 22 21 22 21
56 55 53 52 52 51 51 51 50 50 51 52 52 53 54 50 30 25 45 47 47 48 41 32 31 30 31 31 30 29 24 23 17 23 19 24 24 24 23 22 23 22 21 21 21
57 55 53 52 51 51 50 50 50 50 51 52 52 53 54 41 21 29 42 42 45 43 36 32 30 31 30 29 27 26 25 22 28 25 21 22 24 22 23 26 22 23 22 21 20
57 56 55 52 52 51 50 50 50 50 50 51 52 53 47 28 25 29 46 42 36 38 34 30 30 31 28 26 25 25 23 23 24 24 22 22 22 22 22 24 20 21 22 21 21
57 56 55 54 51 51 50 49 50 50 50 51 52 52 38 22 28 27 33 35 32 33 31 31 32 32 28 24 25 24 24 22 23 23 22 22 21 22 21 22 20 22 22 21 21
56 55 55 54 51 50 50 49 49 49 50 51 51 43 28 25 27 31 30 33 35 32 31 34 31 33 29 28 27 25 22 21 21 22 23 22 20 20 21 21 22 20 20 22 21
56 55 55 54 51 51 50 48 48 49 50 51 50 37 25 30 28 27 28 30 32 34 33 35 33 32 32 28 24 21 23 15 21 22 23 22 17 20 20 19 20 21 19 21 22
56 55 54 54 52 50 50 48 47 49 51 50 41 34 21 32 25 28 29 28 31 30 31 25 36 30 30 26 22 22 16 15 20 21 21 21 20 20 18 18 18 19 19 19 21
55 55 54 53 52 51 50 47 48 49 45 28 20 28 21 19 29 28 30 31 30 31 32 32 29 27 25 24 20 21 17 14 13 18 19 19 18 19 17 17 18 17 17 18 19
55 55 54 53 52 51 47 45 36 35 30 23 20 21 19 25 30 28 30 29 29 29 24 29 23 20 19 19 19 15 15 13 14 17 18 18 17 16 15 16 16 15 16 18 18
55 55 54 53 52 51 45 35 28 33 23 26 26 24 23 24 20 27 33 24 27 22 23 22 18 21 25 21 19 18 14 13 16 16 14 13 12 12 11 11 13 16 16 15 18
55 54 54 53 53 50 44 38 36 34 27 24 24 21 23 24 18 24 28 25 20 19 22 21 20 20 18 19 16 15 15 13 13 17 17 15 17 16 16 14 13 13 16 18 17
55 54 53 53 49 45 42 39 39 41 25 23 24 25 23 25 21 27 26 23 21 16 21 20 17 16 17 16 16 14 15 14 17 16 15 12 15 11 12 13 13 15 15 16 18
55 54 53 52 44 39 32 38 40 40 21 25 20 32 27 21 23 25 27 22 18 15 18 18 16 16 20 17 17 19 18 16 17 15 17 18 13 18 12 13 12 15 17 16 18
55 54 53 50 44 37 36 38 42 32 18 23 23 23 21 23 22 24 21 25 22 16 20 20 22 20 19 20 20 19 17 18 18 16 18 18 14 18 14 13 12 15 15 15 19
54 53 51 47 42 39 38 39 27 24 26 24 21 22 17 21 21 19 17 17 17 16 14 19 17 21 20 19 21 21 19 21 19 15 16 9 9 15 14 13 11 14 16 16 20
54 53 51 48 41 40 36 32 22 29 29 26 23 21 17 20 21 19 18 13 14 13 16 15 17 19 20 19 17 20 26 23 12 21 22 9 12 11 14 12 13 14 16 19 20
54 52 49 44 45 42 35 24 23 33 30 24 22 24 22 20 21 20 15 13 12 12 17 13 15 21 20 20 20 17 18 21 17 12 16 19 16 17 20 15 12 14 16 17 21
51 45 41 45 45 42 34 31 32 33 27 23 24 26 23 25 19 18 16 17 14 13 18 17 18 20 20 21 20 18 17 13 23 5 12 21 18 13 14 13 15 15 15 19 20
44 36 42 46 45 39 32 34 33 32 27 23 30 30 27 25 22 19 23 20 15 16 18 17 24 19 19 17 16 17 20 18 21 23 21 18 18 17 16 18 18 18 17 20 23
40 31 43 45 33 32 33 34 37 31 29 27 30 33 30 28 26 20 20 21 20 20 19 22 23 19 17 17 17 18 17 21 20 16 19 21 17 12 15 15 16 18 19 19 24
32 31 41 40 30 31 32 35 32 27 27 28 28 30 31 29 26 26 23 25 24 22 23 23 25 16 19 17 15 16 16 18 24 23 18 17 18 13 13 13 16 16 20 21 22
33 28 32 32 32 33 32 32 31 31 29 32 31 30 29 29 30 27 25 29 31 30 33 32 29 27 16 20 19 15 16 16 21 22 17 16 19 19 20 22 21 20 19 24 22
34 31 33 28 30 32 34 33 30 30 34 35 33 33 31 28 30 29 28 29 31 33 30 30 25 24 25 16 17 17 16 15 16 18 15 18 21 23 27 30 32 31 29 21 22
32 32 33 33 32 32 34 32 32 32 32 32 32 34 34 30 30 29 29 29 26 31 31 30 28 26 26 19 19 18 17 18 16 18 18 16 16 18 22 25 23 25 28 28 27
32 34 36 34 32 30 31 32 33 34 34 35 35 33 33 35 37 37 37 35 32 30 31 30 29 29 26 23 26 24 24 17 20 21 21 19 22 24 22 21 26 26 28 30 30
Lifted_Index
8 8 9 10 11 11 12 12 12 12 12 12 11 11 11 12 13 14 13 13 12 11 11 10 9 8 8 8 7 7 5 4 5 5 5 5 6 7 8 8 8 9 10 10 11
8 8 9 10 10 11 12 12 13 13 12 12 12 11 11 12 13 13 13 13 12 11 11 10 9 8 8 7 7 7 5 5 5 6 6 6 6 6 7 7 7 8 9 11 11
8 8 9 10 10 11 12 12 13 13 12 12 12 11 11 11 11 12 13 13 13 12 11 10 9 8 7 7 7 7 6 6 6 6 6 6 6 6 6 6 7 8 9 10 11
7 8 9 10 10 11 12 12 13 13 12 12 11 11 11 11 10 12 14 14 13 12 11 10 9 8 7 7 7 7 6 7 7 7 7 7 7 6 6 7 8 9 10 10 10
7 8 9 10 11 11 12 12 13 13 12 12 11 11 11 10 11 13 15 15 14 12 11 10 9 8 7 7 7 7 7 7 7 7 7 7 7 6 6 8 9 10 10 10 10
7 8 9 10 11 11 12 12 13 13 12 12 12 12 11 10 12 14 15 14 13 12 11 10 9 9 8 7 7 7 7 7 7 7 7 7 6 6 7 8 9 9 9 10 10
6 7 8 10 11 11 12 12 13 13 12 12 12 12 11 11 13 15 14 14 13 12 11 10 10 9 8 8 8 7 6 6 6 6 7 6 5 5 7 8 8 8 8 9 10
5 6 8 10 11 11 12 13 13 13 12 12 12 12 12 12 14 14 14 13 13 12 12 11 11 10 9 8 7 6 5 5 6 6 6 6 5 5 7 7 7 7 8 9 9
5 6 8 10 11 12 12 13 13 13 12 13 13 12 11 12 13 14 14 13 12 12 12 11 10 9 8 7 6 5 4 4 5 6 6 6 5 6 7 7 7 7 8 9 9
4 5 7 9 11 12 13 13 13 13 13 13 13 11 11 11 13 14 14 13 12 11 10 10 9 7 7 6 4 4 4 4 5 6 6 6 5 5 6 7 7 8 8 9 9
4 5 6 9 11 12 13 13 12 12 12 12 11 10 11 11 12 13 13 12 11 9 8 8 7 6 6 6 5 5 5 5 6 7 6 5 5 5 6 6 6 7 8 9 10
5 5 6 8 10 12 13 13 12 11 10 10 11 11 11 12 11 11 12 11 9 8 7 6 6 6 6 6 6 6 5 5 6 7 7 6 5 5 5 5 6 7 8 10 10
5 5 7 9 11 12 13 13 13 12 10 9 11 11 12 11 10 10 11 10 8 7 6 6 7 7 7 6 6 6 5 5 6 6 6 6 4 4 4 4 5 7 8 9 10
5 5 7 9 11 12 12 13 13 11 8 8 10 12 12 11 10 11 12 11 8 7 7 7 7 7 7 6 6 6 6 6 6 6 5 5 4 4 4 5 5 6 8 9 10
4 5 7 9 11 12 12 12 12 9 7 7 10 12 12 11 10 11 12 11 9 8 8 8 8 8 7 7 7 7 7 7 7 6 5 4 3 4 4 5 5 6 7 8 9
4 5 6 8 9 11 12 12 10 7 6 8 10 11 10 10 9 10 11 11 9 8 8 8 9 9 8 8 8 8 7 6 6 5 4 4 4 4 5 6 6 7 8 9 9
4 5 6 7 8 10 12 10 7 6 7 9 9 9 9 9 9 9 9 9 8 7 7 7 8 9 9 8 8 7 6 4 3 2 3 4 4 4 5 6 7 7 8 9 9
4 4 5 6 8 9 11 8 5 6 8 9 9 8 7 8 8 8 7 7 8 7 6 5 6 8 9 8 7 7 5 4 2 2 3 5 5 5 6 7 7 8 8 9 9
4 4 5 7 8 8 8 7 5 6 8 8 8 7 6 6 7 7 6 7 8 8 7 5 6 8 10 9 8 7 6 5 4 3 3 4 5 6 7 7 7 8 8 8 9
5 5 7 8 8 7 6 6 6 7 8 7 6 6 5 5 5 5 5 7 8 8 8 7 7 8 9 10 9 8 7 6 5 3 2 3 5 6 7 7 7 8 8 8 9
6 7 9 10 8 6 5 6 7 7 7 7 6 5 5 4 4 4 4 7 8 9 8 8 7 8 9 9 9 8 7 6 5 4 3 3 5 7 7 7 7 8 8 9 9
7 8 11 11 7 5 5 6 7 7 7 7 6 6 5 5 4 4 5 7 9 9 8 8 7 6 7 8 9 9 8 7 6 5 4 4 5 7 8 7 7 8 8 9 9
7 8 12 12 7 5 5 6 6 7 7 7 6 6 5 5 4 5 6 9 10 10 9 9 7 5 5 7 8 8 8 8 7 6 4 4 5 7 8 7 7 8 9 9 9
7 8 10 10 8 6 5 5 5 6 6 6 6 5 5 5 5 5 7 9 10 10 10 9 7 5 4 5 6 6 6 7 7 5 4 4 6 7 8 7 7 8 8 8 8
7 7 8 8 7 6 5 5 4 5 5 5 5 5 4 4 4 5 6 8 9 10 10 9 7 5 5 5 5 5 6 6 6 5 5 5 6 7 7 7 6 7 7 8 8
8 8 7 7 7 7 6 5 5 5 5 5 5 4 4 4 4 4 5 6 7 8 8 7 6 5 5 5 5 5 6 6 6 6 6 6 6 7 7 7 7 7 7 8 8
9 8 8 7 7 7 6 6 6 6 6 5 5 5 4 4 4 5 6 6 6 6 6 6 5 4 4 4 5 5 6 6 6 7 6 5 6 6 7 7 7 7 7 8 8